Location: ???? ?????????
(31.1304°N, 31.7111°E)
Time: 18:46:07
(UTC+00:00)

Courier 1B - All Passes

Search period start: 28 February 2021 00:00
Search period end: 10 March 2021 00:00
Orbit: 962 x 1209 km, 28.3° (Epoch: 28 February)

Date Brightness Start Highest point End Pass type
(mag) Time Alt. Az. Time Alt. Az. Time Alt. Az.
28 Feb - 04:07:58 10° SSE 04:09:44 11° SSE 04:11:30 10° SE daylight
28 Feb - 05:57:16 10° SW 06:03:02 34° SSE 06:08:55 10° E daylight
28 Feb - 07:50:13 10° WSW 07:56:42 64° S 08:03:29 10° E daylight
28 Feb - 09:44:00 10° W 09:50:40 68° S 09:57:48 10° ESE daylight
28 Feb - 11:38:04 10° W 11:44:37 43° SSW 11:51:34 10° SE daylight
28 Feb - 13:33:38 10° WSW 13:38:20 18° SSW 13:43:09 10° SSE daylight
01 Mar - 05:04:08 10° SSW 05:09:27 27° SSE 05:14:48 10° E daylight
01 Mar - 06:56:39 10° WSW 07:02:59 57° SSE 07:09:33 10° E daylight
01 Mar - 08:50:19 10° W 08:56:54 71° S 09:03:51 10° E daylight
01 Mar - 10:44:16 10° W 10:50:51 51° SSW 10:57:50 10° ESE daylight
01 Mar - 12:39:09 10° WSW 12:44:35 23° SSW 12:50:15 10° SSE daylight
02 Mar - 04:11:13 10° SSW 04:15:52 21° SSE 04:20:30 10° ESE daylight
02 Mar - 06:03:08 10° WSW 06:09:18 49° SSE 06:15:38 10° E daylight
02 Mar - 07:56:39 10° W 08:03:08 70° S 08:09:56 10° E daylight
02 Mar - 09:50:32 10° W 09:57:05 58° SSW 10:04:01 10° ESE daylight
02 Mar - 11:45:00 10° W 11:50:51 29° SSW 11:57:00 10° SSE daylight
03 Mar - 03:18:42 10° S 03:22:17 15° SSE 03:25:51 10° ESE visible
03 Mar - 05:09:41 10° SW 05:15:41 40° SSE 05:21:43 10° E daylight
03 Mar - 07:02:59 10° WSW 07:09:24 68° S 07:16:02 10° E daylight
03 Mar - 08:56:50 10° W 09:03:19 64° S 09:10:11 10° ESE daylight
03 Mar - 10:51:02 10° W 10:57:08 36° SSW 11:03:34 10° SE daylight
03 Mar - 12:47:36 10° WSW 12:50:44 13° SSW 12:53:55 10° S daylight
04 Mar - 02:27:25 10° SSE 02:28:42 11° SSE 02:29:59 10° SE visible
04 Mar - 04:16:21 10° SW 04:22:05 33° SSE 04:27:45 10° E daylight
04 Mar - 06:09:19 10° WSW 06:15:41 62° S 06:22:10 10° E daylight
04 Mar - 08:03:08 10° W 08:09:35 68° S 08:16:19 10° ESE daylight
04 Mar - 09:57:12 10° W 10:03:25 43° SSW 10:09:59 10° SE daylight
04 Mar - 11:52:37 10° WSW 11:57:02 18° SSW 12:01:36 10° SSE daylight
05 Mar - 03:23:09 10° SSW 03:28:28 26° SSE 03:33:42 10° E visible
05 Mar - 05:15:42 10° WSW 05:22:01 55° SSE 05:28:20 10° E daylight
05 Mar - 07:09:26 10° W 07:15:52 70° S 07:22:28 10° E daylight
05 Mar - 09:03:25 10° W 09:09:43 51° SSW 09:16:19 10° ESE daylight
05 Mar - 10:58:13 10° WSW 11:03:21 23° SSW 11:08:42 10° SSE daylight
06 Mar - 02:30:11 10° SSW 02:34:52 20° SSE 02:39:27 10° ESE visible
06 Mar - 04:22:07 10° SW 04:28:21 47° SSE 04:34:31 10° E daylight
06 Mar - 06:15:43 10° W 06:22:09 70° S 06:28:39 10° E daylight
06 Mar - 08:09:40 10° W 08:16:01 58° SSW 08:22:35 10° ESE daylight
06 Mar - 10:04:06 10° W 10:09:41 29° SSW 10:15:30 10° SE daylight
07 Mar - 01:37:36 10° S 01:41:15 15° SSE 01:44:49 10° ESE visible
07 Mar - 03:28:35 10° SW 03:34:43 39° SSE 03:40:41 10° E visible
07 Mar - 05:21:59 10° WSW 05:28:27 67° S 05:34:52 10° E daylight
07 Mar - 07:15:57 10° W 07:22:19 64° S 07:28:51 10° ESE daylight
07 Mar - 09:10:10 10° W 09:16:02 36° SSW 09:22:07 10° SE daylight
07 Mar - 11:06:40 10° SW 11:09:31 13° SSW 11:12:27 10° S daylight
08 Mar - 00:46:13 10° SSE 00:47:37 11° SSE 00:49:00 10° SE visible
08 Mar - 02:35:10 10° SW 02:41:05 32° SSE 02:46:47 10° E visible
08 Mar - 04:28:15 10° WSW 04:34:45 61° S 04:41:07 10° E daylight
08 Mar - 06:22:11 10° W 06:28:37 68° S 06:35:06 10° ESE daylight
08 Mar - 08:16:19 10° W 08:22:23 43° SSW 08:28:38 10° SE daylight
08 Mar - 10:11:42 10° WSW 10:15:52 18° SSW 10:20:11 10° SSE daylight
09 Mar - 01:41:54 10° SSW 01:47:26 26° SSE 01:52:46 10° ESE visible
09 Mar - 03:34:31 10° WSW 03:41:04 54° SSE 03:47:21 10° E visible
09 Mar - 05:28:24 10° W 05:34:55 70° S 05:41:21 10° E daylight
09 Mar - 07:22:30 10° W 07:28:44 51° SSW 07:35:03 10° ESE daylight
09 Mar - 09:17:19 10° WSW 09:22:16 23° SSW 09:27:21 10° SSE daylight
